Chehalis, WA
on Thursday, November 8, 2012

Thursday
Previous Day Next Day
Daily Summary
 ActualAverage (KOLM)Record (KOLM)
Temperature
Mean Temperature °F 45°F  
Max Temperature 50°F 52°F 62°F (1996)
Min Temperature 32°F 38°F 21°F (1977)
Degree Days
Heating Degree Days 24 20  
Month to date heating degree days 154  
Since 1 July heating degree days 948  
Cooling Degree Days 0 0  
Month to date cooling degree days 0  
Year to date cooling degree days 106  
Moisture
Dew Point 36°F   
Average Humidity 89    
Maximum Humidity 100    
Minimum Humidity 62    
Precipitation
Precipitation 0.00 in 0.27 in 1.17 in (1973)
Month to date precipitation 2.02  
Year to date precipitation 35.93  
Wind
Wind Speed 2 mph   
Max Wind Speed 15 mph   
Max Gust Speed 22 mph   
Visibility 6 miles   
Events Fog   

Key: T is trace of precipitation, MM is missing value
Source: NWS Daily Summary
Time(PST)TemperatureDew PointHumidity Pressure Visibility Wind DirectionWind SpeedGust SpeedPrecipitationEvents Conditions
12:15 AM 39.2°F 39.2°F 100% 29.96 in 10.0 miles Calm Calm - N/A   Unknown
12:35 AM 39.2°F 39.2°F 100% 29.95 in 10.0 miles Calm Calm - N/A   Unknown
12:55 AM 39.2°F 39.2°F 100% 29.94 in 10.0 miles Calm Calm - N/A   Unknown
1:15 AM 37.4°F 37.4°F 100% 29.93 in 10.0 miles Calm Calm - N/A   Unknown
1:35 AM 37.4°F 35.6°F 93% 29.92 in 10.0 miles Calm Calm - N/A   Unknown
1:55 AM 37.4°F 35.6°F 93% 29.92 in 1.2 miles Calm Calm - N/A   Mist
2:15 AM 35.6°F 35.6°F 100% 29.91 in 0.2 miles Calm Calm - N/A Fog Fog
2:35 AM 35.6°F 35.6°F 100% 29.91 in 0.2 miles Calm Calm - N/A Fog Fog
2:55 AM 35.6°F 35.6°F 100% 29.90 in 0.2 miles Calm Calm - N/A Fog Fog
3:15 AM 35.6°F 35.6°F 100% 29.89 in 0.2 miles Calm Calm - N/A Fog Fog
3:35 AM 35.6°F 33.8°F 93% 29.89 in 0.2 miles Calm Calm - N/A Fog Fog
3:55 AM 33.8°F 33.8°F 100% 29.88 in 0.2 miles Calm Calm - N/A Fog Fog
4:15 AM 35.6°F 33.8°F 93% 29.88 in 0.2 miles Calm Calm - N/A Fog Fog
4:35 AM 33.8°F 33.8°F 100% 29.88 in 0.2 miles Calm Calm - N/A Fog Fog
4:55 AM 35.6°F 33.8°F 93% 29.88 in 0.2 miles Calm Calm - N/A Fog Fog
5:15 AM 35.6°F 33.8°F 93% 29.87 in 0.2 miles Calm Calm - N/A Fog Fog
5:35 AM 35.6°F 33.8°F 93% 29.87 in 0.5 miles Calm Calm - N/A Fog Fog
5:55 AM 35.6°F 35.6°F 100% 29.86 in 0.5 miles Calm Calm - N/A Fog Fog
6:15 AM 35.6°F 35.6°F 100% 29.86 in 0.5 miles Calm Calm - N/A Fog Fog
6:35 AM 35.6°F 35.6°F 100% 29.86 in 0.5 miles Calm Calm - N/A Fog Fog
6:55 AM 35.6°F 35.6°F 100% 29.86 in 0.2 miles Calm Calm - N/A Fog Fog
7:15 AM 35.6°F 35.6°F 100% 29.85 in 0.5 miles Calm Calm - N/A Fog Fog
7:35 AM 35.6°F 35.6°F 100% 29.86 in 0.2 miles Calm Calm - N/A Fog Fog
7:55 AM 37.4°F 35.6°F 93% 29.86 in 0.2 miles Calm Calm - N/A Fog Fog
8:15 AM 35.6°F 35.6°F 100% 29.85 in 0.2 miles NNW 3.5 mph - N/A Fog Fog
8:35 AM 35.6°F 35.6°F 100% 29.85 in 0.2 miles NNE 4.6 mph - N/A Fog Fog
8:55 AM 37.4°F 35.6°F 93% 29.85 in 1.2 miles North 3.5 mph - N/A   Mist
9:15 AM 37.4°F 37.4°F 100% 29.84 in 4.0 miles NNE 5.8 mph - N/A   Mist
9:35 AM 37.4°F 37.4°F 100% 29.84 in 8.0 miles North 3.5 mph - N/A   Unknown
9:55 AM 39.2°F 39.2°F 100% 29.84 in 5.0 miles North 5.8 mph - N/A   Mist
10:15 AM 41.0°F 41.0°F 100% 29.83 in 9.0 miles North 4.6 mph - N/A   Unknown
10:35 AM 41.0°F 39.2°F 93% 29.84 in 10.0 miles North 4.6 mph - N/A   Unknown
10:55 AM 44.6°F 39.2°F 81% 29.83 in 10.0 miles North 5.8 mph - N/A   Unknown
11:15 AM 44.6°F 39.2°F 81% 29.83 in 10.0 miles North 6.9 mph - N/A   Unknown
11:35 AM 46.4°F 39.2°F 76% 29.83 in 10.0 miles NNE 13.8 mph 18.4 mph N/A   Unknown
11:55 AM 46.4°F 39.2°F 76% 29.82 in 5.0 miles NNE 13.8 mph 18.4 mph N/A   Haze
12:15 PM 48.2°F 37.4°F 66% 29.82 in 7.0 miles NNE 15.0 mph 21.9 mph N/A   Unknown
12:35 PM 48.2°F 37.4°F 66% 29.82 in 7.0 miles NNE 11.5 mph - N/A   Unknown
12:55 PM 48.2°F 39.2°F 71% 29.81 in 6.0 miles NNE 8.1 mph - N/A   Haze
1:15 PM 48.2°F 39.2°F 71% 29.81 in 8.0 miles North 6.9 mph - N/A   Unknown
1:35 PM 48.2°F 37.4°F 66% 29.81 in 5.0 miles NNE 9.2 mph - N/A   Haze
2:15 PM 50.0°F 39.2°F 66% 29.80 in 8.0 miles NNE 10.4 mph - N/A   Unknown
2:35 PM 50.0°F 37.4°F 62% 29.80 in 10.0 miles NNE 8.1 mph - N/A   Unknown
2:55 PM 50.0°F 37.4°F 62% 29.80 in 10.0 miles NE 10.4 mph 17.3 mph N/A   Unknown
3:15 PM 50.0°F 37.4°F 62% 29.81 in 10.0 miles NNE 9.2 mph - N/A   Unknown
3:35 PM 50.0°F 37.4°F 62% 29.81 in 10.0 miles NNE 10.4 mph - N/A   Unknown
4:15 PM 48.2°F 37.4°F 66% 29.82 in 10.0 miles NNE 10.4 mph - N/A   Unknown
4:35 PM 48.2°F 39.2°F 71% 29.82 in 10.0 miles North 9.2 mph - N/A   Unknown
4:55 PM 46.4°F 39.2°F 76% 29.82 in 10.0 miles North 5.8 mph - N/A   Unknown
5:15 PM 46.4°F 39.2°F 76% 29.82 in 10.0 miles North 3.5 mph - N/A   Unknown
5:35 PM 44.6°F 37.4°F 76% 29.83 in 10.0 miles North 3.5 mph - N/A   Unknown
5:55 PM 44.6°F 37.4°F 76% 29.83 in 10.0 miles Calm Calm - N/A   Unknown
6:35 PM 42.8°F 37.4°F 81% 29.84 in 10.0 miles NNW 5.8 mph - N/A   Unknown
6:55 PM 41.0°F 37.4°F 87% 29.84 in 10.0 miles NNW 6.9 mph - N/A   Unknown
7:15 PM 41.0°F 37.4°F 87% 29.84 in 10.0 miles Calm Calm - N/A   Unknown
7:35 PM 41.0°F 37.4°F 87% 29.84 in 10.0 miles Calm Calm - N/A   Unknown
8:15 PM 37.4°F 35.6°F 93% 29.85 in 10.0 miles Calm Calm - N/A   Unknown
8:35 PM 37.4°F 35.6°F 93% 29.85 in 10.0 miles Calm Calm - N/A   Unknown
8:55 PM 37.4°F 35.6°F 93% 29.85 in 10.0 miles Calm Calm - N/A   Unknown
9:15 PM 35.6°F 35.6°F 100% 29.86 in 10.0 miles Calm Calm - N/A   Unknown
9:35 PM 35.6°F 33.8°F 93% 29.86 in 10.0 miles Calm Calm - N/A   Unknown
9:55 PM 33.8°F 33.8°F 100% 29.86 in 10.0 miles Calm Calm - N/A   Unknown
10:15 PM 33.8°F 33.8°F 100% 29.86 in 9.0 miles Calm Calm - N/A   Unknown
10:35 PM 32.0°F 32.0°F 100% 29.86 in 5.0 miles Calm Calm - N/A   Mist
10:55 PM 32.0°F 32.0°F 100% 29.86 in 4.0 miles Calm Calm - N/A   Mist
11:15 PM 32.0°F 32.0°F 100% 29.86 in 1.5 miles Calm Calm - N/A   Mist
11:35 PM 32.0°F 32.0°F 100% 29.87 in 0.5 miles Calm Calm - N/A Fog Fog
11:55 PM 32.0°F 32.0°F 100% 29.87 in 0.5 miles Calm Calm - N/A Fog Fog
Moon Phase
Nov. 08 Nov. 13 Nov. 20 Nov. 28 Dec. 06
Sunrise:07:05 AM (PST) Moon Rise:12:45 AM (PST)11/8
Sunset:04:45 PM (PST) Moon Set:01:48 PM (PST)11/8

Copyright © 2014 The Weather Underground, Inc.